TimeEST,TemperatureF,Dew PointF,Humidity,Sea Level PressureIn,VisibilityMPH,Wind Direction,Wind SpeedMPH,Gust SpeedMPH,PrecipitationIn,Events,Conditions,WindDirDegrees,DateUTC
12:00 AM,37.4,32.0,81,30.02,9.0,South,4.6,-,N/A,,Overcast,180,2012-12-07 05:00:00
1:00 AM,38,33,75,30.01,10,SW,4.6,,,,Overcast,230,2012-12-07 06:00:00
1:00 AM,39.2,33.8,81,30.01,9.0,WSW,5.8,-,N/A,,Overcast,240,2012-12-07 06:00:00
2:00 AM,37.4,32.0,81,30.00,9.0,SSW,3.5,-,N/A,,Overcast,210,2012-12-07 07:00:00
3:00 AM,37.4,32.0,81,30.01,9.0,SW,6.9,-,N/A,,Overcast,230,2012-12-07 08:00:00
4:00 AM,37.4,30.2,75,29.98,9.0,South,3.5,-,N/A,,Overcast,190,2012-12-07 09:00:00
5:00 AM,37.4,32.0,81,29.97,9.0,SSW,4.6,-,N/A,,Overcast,210,2012-12-07 10:00:00
6:00 AM,37.4,33.8,87,29.96,9.0,Calm,Calm,-,N/A,,Overcast,0,2012-12-07 11:00:00
7:00 AM,37,34,83,29.97,10,SW,1.2,,,,Overcast,230,2012-12-07 12:00:00
7:00 AM,37.4,33.8,87,29.97,9.0,Calm,Calm,-,N/A,,Overcast,0,2012-12-07 12:00:00
8:00 AM,39.2,33.8,81,29.96,9.0,South,4.6,-,N/A,,Scattered Clouds,180,2012-12-07 13:00:00
9:00 AM,39.2,35.6,87,29.97,9.0,West,4.6,-,N/A,,Overcast,260,2012-12-07 14:00:00
10:00 AM,41.0,35.6,81,29.97,9.0,WSW,2.3,-,N/A,,Overcast,250,2012-12-07 15:00:00
11:00 AM,41.0,35.6,81,29.98,9.0,West,4.6,-,N/A,,Overcast,260,2012-12-07 16:00:00
12:00 PM,41.0,37.4,87,29.96,9.0,WSW,4.6,-,N/A,,Overcast,240,2012-12-07 17:00:00
12:10 PM,42.8,37.4,81,29.96,9.0,SW,3.5,-,N/A,Rain,Light Rain,220,2012-12-07 17:10:00
1:00 PM,43,38,76,29.94,10,SSW,3.5,,,Rain,Light Rain,210,2012-12-07 18:00:00
1:00 PM,42.8,37.4,81,29.94,9.0,SSW,3.5,-,N/A,Rain,Light Rain,210,2012-12-07 18:00:00
1:02 PM,42.8,37.4,81,29.94,9.0,SSW,2.3,-,N/A,,Overcast,210,2012-12-07 18:02:00
1:11 PM,42.8,37.4,81,29.93,9.0,SW,2.3,-,N/A,Rain,Light Rain,220,2012-12-07 18:11:00
1:23 PM,44.6,37.4,76,29.93,9.0,Variable,2.3,-,N/A,,Overcast,0,2012-12-07 18:23:00
2:00 PM,42.8,37.4,81,29.92,9.0,South,4.6,-,N/A,,Overcast,180,2012-12-07 19:00:00
2:07 PM,42.8,37.4,81,29.93,9.0,South,4.6,-,N/A,Rain,Light Rain,180,2012-12-07 19:07:00
3:00 PM,42.8,41.0,93,29.94,7.0,South,5.8,-,N/A,Rain,Light Rain,170,2012-12-07 20:00:00
4:00 PM,42.8,41.0,93,29.96,8.0,WNW,3.5,-,N/A,Rain,Light Rain,290,2012-12-07 21:00:00
4:29 PM,42.8,41.0,93,29.96,9.0,Calm,Calm,-,N/A,,Overcast,0,2012-12-07 21:29:00
4:46 PM,42.8,39.2,87,29.96,9.0,NNW,2.3,-,N/A,Rain,Light Rain,330,2012-12-07 21:46:00
5:00 PM,42.8,39.2,87,29.96,9.0,Calm,Calm,-,N/A,Rain,Light Rain,0,2012-12-07 22:00:00
5:05 PM,42.8,39.2,87,29.96,9.0,Calm,Calm,-,N/A,,Overcast,0,2012-12-07 22:05:00
6:00 PM,41.0,39.2,93,29.97,6.0,Calm,Calm,-,N/A,,Overcast,0,2012-12-07 23:00:00
6:10 PM,41.0,39.2,93,29.97,6.0,Variable,2.3,-,N/A,,Overcast,0,2012-12-07 23:10:00
6:49 PM,41.0,39.2,93,29.97,5.0,Calm,Calm,-,N/A,,Overcast,0,2012-12-07 23:49:00
6:51 PM,41.0,39.2,93,29.97,5.0,Calm,Calm,-,N/A,Rain,Light Rain,0,2012-12-07 23:51:00
7:00 PM,41,40,93,29.97,4,ESE,1.2,,,Rain,Light Rain,110,2012-12-08 00:00:00
7:00 PM,41.0,39.2,93,29.97,4.0,Calm,Calm,-,N/A,Rain,Light Rain,0,2012-12-08 00:00:00
7:51 PM,41.0,39.2,93,29.98,2.5,SE,3.5,-,N/A,Rain,Light Rain,130,2012-12-08 00:51:00
8:00 PM,41.0,39.2,93,29.98,2.0,East,2.3,-,N/A,Rain,Light Rain,100,2012-12-08 01:00:00
8:43 PM,41.0,39.2,93,29.97,2.5,East,4.6,-,N/A,,Overcast,100,2012-12-08 01:43:00
9:00 PM,41.0,41.0,100,29.96,2.5,ENE,5.8,-,N/A,,Overcast,70,2012-12-08 02:00:00
9:08 PM,41.0,39.2,93,29.96,1.8,ENE,6.9,-,N/A,,Overcast,70,2012-12-08 02:08:00
9:18 PM,41.0,39.2,93,29.96,2.0,ENE,8.1,-,N/A,,Overcast,60,2012-12-08 02:18:00
10:00 PM,41.0,39.2,93,29.94,2.5,East,6.9,-,N/A,,Overcast,80,2012-12-08 03:00:00
10:08 PM,41.0,39.2,93,29.94,2.2,East,6.9,-,N/A,,Overcast,80,2012-12-08 03:08:00
10:13 PM,41.0,39.2,93,29.95,1.8,ENE,6.9,-,N/A,,Overcast,70,2012-12-08 03:13:00
10:19 PM,41.0,39.2,93,29.95,1.8,ENE,6.9,-,N/A,,Overcast,70,2012-12-08 03:19:00
10:40 PM,41.0,41.0,100,29.95,1.5,ENE,6.9,-,N/A,,Overcast,60,2012-12-08 03:40:00
11:00 PM,41.0,41.0,100,29.95,1.8,ENE,6.9,-,N/A,,Overcast,60,2012-12-08 04:00:00
11:09 PM,41.0,41.0,100,29.94,2.0,ENE,8.1,-,N/A,,Overcast,60,2012-12-08 04:09:00
11:18 PM,41.0,41.0,100,29.94,2.5,ENE,8.1,-,N/A,,Overcast,70,2012-12-08 04:18:00
11:40 PM,41.0,41.0,100,29.94,2.5,ENE,6.9,-,N/A,,Overcast,60,2012-12-08 04:40:00
11:41 PM,41.0,41.0,100,29.94,3.0,ENE,6.9,-,N/A,,Overcast,60,2012-12-08 04:41:00
11:51 PM,41.0,41.0,100,29.94,3.0,ENE,5.8,-,N/A,,Overcast,70,2012-12-08 04:51:00